Regional Weather Roundup
Issued by NWS

Home | Current Version | Previous Version | Text Only | Print | Product List | Glossary Off
Versions: 1 2 3 4 5 6 7 8 9 10 11 12 13 14 15 16 17 18 19 20 21 22 23 24 25 26 27 28 29 30 31 32 33 34 35 36 37 38 39 40 41 42 43 44 45 46 47 48 49 50

000
ASUS45 KPSR 142100
RWRAZ

PRELIMINARY ARIZONA REGIONAL HOURLY WEATHER ROUNDUP
NATIONAL WEATHER SERVICE PHOENIX AZ
200 PM MST SUN SEP 14 2014

NOTE: FAIR INDICATES FEW OR NO CLOUDS BELOW 12,000 FEET WITH NO
SIGNIFICANT WEATHER AND/OR OBSTRUCTIONS TO VISIBILITY.

AZZ001>003-036-142200-
NORTHWEST ARIZONA

CITY           SKY/WX    TMP DP  RH WIND       PRES   REMARKS
KINGMAN        MOSUNNY   94  47  20 VRB5      29.97F
$$

AZZ004>008-015-016-018-142200-
NORTH CENTRAL ARIZONA

CITY           SKY/WX    TMP DP  RH WIND       PRES   REMARKS
GRAND CANYON   MOSUNNY   78  43  28 SE12      30.21F
PRESCOTT       MOSUNNY   85  51  31 VRB6      30.08F
FLAGSTAFF      MOSUNNY   78  43  28 E13       30.23F
PAYSON         MOSUNNY   81  55  41 S14       30.10F
PAGE           SUNNY     90  34  13 VRB6      30.03F
$$

AZZ009>014-017-142200-
NORTHEAST ARIZONA

CITY           SKY/WX    TMP DP  RH WIND       PRES   REMARKS
WINSLOW        NOT AVBL
SAINT JOHNS    MOSUNNY   84  45  25 SW6       30.10F
WINDOW ROCK    PTSUNNY   80  40  23 E7        30.20
$$

AZZ023-142200-
GREATER PHOENIX AREA

CITY           SKY/WX    TMP DP  RH WIND       PRES   REMARKS
PHOENIX        MOSUNNY   98  56  24 VRB3      29.78F
GLENDALE       MOSUNNY   99  57  25 NE7       29.80F
LUKE AFB       SUNNY     98  58  26 VRB5      29.78F
DEER VALLEY    SUNNY     95  55  26 SE9       29.80F
SCOTTSDALE     SUNNY     95  56  26 VRB3      29.82F
MESA-FALCON    MOSUNNY  100  55  22 SE6       29.80F
MESA-GATEWAY   MOSUNNY   99  55  23 E7        29.82F
$$

AZZ027-028-142200-
SOUTHWEST MARICOPA COUNTY AND PINAL COUNTY

CITY           SKY/WX    TMP DP  RH WIND       PRES   REMARKS
CASA GRANDE    SUNNY     95  57  28 SE3       29.81F
$$

AZZ503-504-507>509-142200-
SOUTHEAST ARIZONA

CITY           SKY/WX    TMP DP  RH WIND       PRES   REMARKS
TUCSON         SUNNY     93  55  27 E12       29.90F
DAVIS-MONTHAN  SUNNY     92  55  28 E8        29.88F
NOGALES        SUNNY     87  56  34 CALM      29.97F
SIERRA VISTA   SUNNY     83  55  38 E9        30.05F
SAFFORD        SUNNY     87  54  32 SE20      29.98F
$$

AZZ020-021-025-026-031-142200-
SOUTHWEST ARIZONA

CITY           SKY/WX    TMP DP  RH WIND       PRES   REMARKS
YUMA           NOT AVBL
$$

CAZ031-033-041-043-047-048-061-142200-
SOUTHERN CALIFORNIA

CITY           SKY/WX    TMP DP  RH WIND       PRES   REMARKS
DOWNTOWN L.A.  SUNNY     94  60  32 MISG      29.71F
L.A. AIRPORT   MOSUNNY   82  64  54 W15       29.73F
SAN DIEGO      MOSUNNY   84  68  58 NW7       29.72F
BURBANK        SUNNY    103  44  13 S9        29.73F
ONTARIO        MOSUNNY  106  46  13 W6        29.73F HX 102
RIVERSIDE      SUNNY    107  46  13 VRB7      29.71F HX 103
PALM SPRINGS   MOSUNNY  108  54  16 SE12      29.72F HX 106
EL CENTRO NAS  MOSUNNY  107  56  18 NE12      29.68F HX 106
IMPERIAL       SUNNY    106  57  20 VRB7G17   29.67F HX 105
BLYTHE         SUNNY    104  56  20 E8G17     29.72F HX 103
$$

NVZ020-UTZ003-142200-
SOUTHERN NEVADA-UTAH

CITY           SKY/WX    TMP DP  RH WIND       PRES   REMARKS
LAS VEGAS      NOT AVBL
SALT LAKE CITY PTSUNNY   86  30  13 CALM      30.00F
$$

NMZ009-TXZ055-142200-
NEW MEXICO-WEST TEXAS

CITY           SKY/WX    TMP DP  RH WIND       PRES   REMARKS
ALBUQUERQUE    MOSUNNY   80  53  39 SW13      30.16F
EL PASO        PTSUNNY   78  56  46 SE9       30.10F
$$


........................KEY........................
SKY/WX - SKY CONDITION/WEATHER
TMP    - TEMPERATURE IN FAHRENHEIT
DP     - DEW POINT IN FAHRENHEIT
RH     - RELATIVE HUMIDITY IN PERCENT
WIND   - DIRECTION AND SPEED IN MILES PER HOUR (MPH)
VRB    - VARIABLE WIND DIRECTION
PRES   - MEAN SEA LEVEL PRESSURE IN INCHES OF MERCURY
         F - FALLING PRESSURE   R - RISING PRESSURE
         S - STEADY PRESSURE
VSB    - VISIBILITY IN MILES
HX     - HEAT INDEX IN FAHRENHEIT
WCI    - WIND CHILL INDEX IN FAHRENHEIT
TC     - TEMPERATURE IN CELSIUS WHICH IS ALSO KNOWN AS
         TEMPERATURE IN CENTIGRADE
AFB    - AIR FORCE BASE
         LUKE AFB IS LUKE AIR FORCE BASE
         DAVIS-MONTHAN IS DAVIS-MONTHAN AIR FORCE BASE
NAS    - NAVAL AIR STATION
         EL CENTRO NAS IS EL CENTRO NAVAL AIR STATION
N/A    - NOT AVAILABLE



USA.gov is the U.S. government's official web portal to all federal, state and local government web resources and services.